Regional Weather Roundup
Issued by NWS

Home | Current Version | Previous Version | Graphics & Text | Print | Product List | Glossary Off
Versions: 1 2 3 4 5 6 7 8 9 10 11 12 13 14 15 16 17 18 19 20 21 22 23 24 25 26 27 28 29 30 31 32 33 34 35 36 37 38 39 40 41 42 43 44 45 46 47 48 49 50

000
ASUS43 KMKX 221521
RWRWI

WISCONSIN REGIONAL WEATHER ROUNDUP
NATIONAL WEATHER SERVICE MILWAUKEE/SULLIVAN WI
1000 AM CDT MON SEP 22 2014

NOTE: "FAIR" INDICATES FEW OR NO CLOUDS BELOW 12,000 FEET WITH NO
SIGNIFICANT WEATHER AND/OR OBSTRUCTIONS TO VISIBILITY.

WIZ001-002-006>008-014>016-023>028-221600-
NORTHWEST WISCONSIN

CITY           SKY/WX    TMP DP  RH WIND       PRES   REMARKS
SUPERIOR ARPT  SUNNY     56  50  80 SW9       30.21S
ASHLAND        SUNNY     57  50  77 SW9       30.21S
HAYWARD        MOSUNNY   50  49  96 SW3       30.24S
SIREN          SUNNY     54  51  89 W5        30.25S
RICE LAKE      MOSUNNY   53  51  94 SW3       30.26R
LADYSMITH      CLOUDY    50  49  97 CALM      30.26R
EAU CLAIRE     SUNNY     57  50  77 SW7       30.25S
MENOMONIE      SUNNY     56  50  79 W7        30.26S
NEW RICHMOND   SUNNY     53  53 100 W5        30.27S
OSCEOLA        SUNNY     54  54 100 W6        30.30R
$$

WIZ003>005-009-010-017-018-221600-
NORTH CENTRAL WISCONSIN

CITY           SKY/WX    TMP DP  RH WIND       PRES   REMARKS
WOODRUFF       SUNNY     57  51  79 W6        30.21R
RHINELANDER    SUNNY     55  46  71 W9        30.23R
EAGLE RIVER    SUNNY     56  46  67 NW6       30.20S
LAND O LAKES   MOSUNNY   56  47  71 W5        30.20S
PHILLIPS       PTSUNNY   53  49  86 SW3       30.23R
TOMAHAWK       SUNNY     56  47  71 W6        30.23S
MEDFORD        SUNNY     55  47  75 SW6       30.24S
MERRILL        SUNNY     56  47  73 W5        30.23S
$$

WIZ029-030-035-036-043>047-221600-
CENTRAL WISCONSIN

CITY           SKY/WX    TMP DP  RH WIND       PRES   REMARKS
WAUSAU         SUNNY     56  45  66 NW6       30.23R
MOSINEE        SUNNY     55  48  76 W6        30.25R
MARSHFIELD     SUNNY     57  49  74 W7        30.25R
STEVENS POINT  SUNNY     53  44  71 W5        30.25S
WAUPACA        SUNNY     59  46  60 W6        30.25S
WAUTOMA        SUNNY     60  46  59 W9        30.26S
WISC RAPIDS    SUNNY     56  48  74 SW6       30.27R
CAMP DOUGLAS   SUNNY     59  52  77 W5        30.27R
$$

WIZ011>013-019>022-031-037>040-048>050-221600-
NORTHEAST WISCONSIN

CITY           SKY/WX    TMP DP  RH WIND       PRES   REMARKS
ANTIGO         SUNNY     54  46  74 W3        30.24R
STURGEON BAY   CLOUDY    54  45  71 W8        30.22S
GREEN BAY      SUNNY     55  47  74 W7        30.24R
MANITOWOC      SUNNY     56  47  71 NW9       30.24S
APPLETON       MOSUNNY   52  46  82 W9        30.24S
CLINTONVILLE   SUNNY     55  45  67 W6        30.23S
OSHKOSH        SUNNY     55  45  68 W7        30.25R
$$

WIZ032>034-041-042-053>061-221600-
SOUTHWEST WISCONSIN

CITY           SKY/WX    TMP DP  RH WIND       PRES   REMARKS
LA CROSSE      SUNNY     54  49  83 S8        30.28R
SPARTA         SUNNY     54  47  75 SW5       30.29R
VIROQUA        FAIR      57  50  78 SW7       30.29R
BOSCOBEL       SUNNY     54  47  77 SW6       30.31R
PRAIRIE DU CHI SUNNY     54  52  93 CALM      30.31R
PLATTEVILLE    FAIR      56  48  75 SW6       30.32R
$$

WIZ056-057-062-063-064-067-068-221600-
SOUTH CENTRAL WISCONSIN

CITY           SKY/WX    TMP DP  RH WIND       PRES   REMARKS
BARABOO/DELLS  SUNNY     57  43  60 SW6       30.28R
LONE ROCK      SUNNY     53  47  79 W3        30.30R
WATERTOWN      SUNNY     55  44  67 W5        30.27S
MADISON        SUNNY     57  43  59 SW6       30.28R
MIDDLETON      FAIR      58  43  56 W6        30.29R
MONROE         SUNNY     55  41  58 W5        30.29R
JANESVILLE     SUNNY     55  43  62 NW7       30.29R
$$

WIZ051-052-058>065-066-070>072-221600-
SOUTHEAST WISCONSIN

CITY           SKY/WX    TMP DP  RH WIND       PRES   REMARKS
MILWAUKEE      SUNNY     55  41  59 W6        30.28R
WAUKESHA       SUNNY     54  43  66 W8        30.28S
MILWAUKEE/TIMM SUNNY     54  39  58 W6        30.27F
RACINE         SUNNY     55  44  66 W9        30.29S
BURLINGTON     SUNNY     53  43  67 NW6       30.28S
KENOSHA        SUNNY     54  44  69 NW7       30.29R
FOND DU LAC    SUNNY     56  46  69 VRB3      30.26R
SHEBOYGAN      SUNNY     57  44  62 W10       30.25R
WEST BEND      SUNNY     55  41  58 W8        30.26R
JUNEAU         SUNNY     52  45  76 SW5       30.28S
$$

LSZ147-162-221600-
LAKE SUPERIOR

STATION/POSITION TIME  TEMP    WIND        PRES    WAVE
                       AIR SEA DIR/SP/G            HT/PER
                 (UTC) (F)     (DEG/KT/KT) (MB)    (FT/S)
W MID LAKE BUOY  1450   49 47  250/ 12/ 12 1021.2R   1/ 3
DEVILS ISLAND    1500   52     240/ 16/ 19 1022.2R
PORT WING        1400   52     190/  4/  6 1023.0R
SAXON HARBOR     1400   54     190/  5/  7 1022.7
$$

LMZ867-665-643>646-221600-
LAKE MICHIGAN

STATION/POSITION TIME  TEMP    WIND        PRES    WAVE
                       AIR SEA DIR/SP/G            HT/PER
                 (UTC) (F)     (DEG/KT/KT) (MB)    (FT/S)
N MID LAKE BUOY  1450   51 57  240/ 14/ 16 1022.3F   1/ 3
NORTHPORT PIER   1400   52     270/  1/ 10 1022.4F
KEWAUNEE LAKESHO 1500   55     280/  4/  8 1022.4R
SHEBOYGAN LAKESH 1500   56 53  310/  7/  9 1024.8R
PORT WASHINGTON  1440   56     290/  5/ 10 1025.1R
ATWATER BUOY     1500   55     250/  6/ 10 1025.8R
MILWAUKEE LAKESH 1500   55     250/  7/  8   N/A
S MID LAKE BUOY  1450   54 62  310/  8/ 12 1025.3R   4/ 6
KENOSHA   LAKESH 1500   54     280/  4/  9 1025.1S
$$

TC  - TEMPERATURE IN CELSIUS
VSB - VISIBILITY IN STATUTE MILES
WCI - WIND CHILL INDEX
HX  - HEAT INDEX



USA.gov is the U.S. government's official web portal to all federal, state and local government web resources and services.